Location: Ammerl�gen
(47.2167°N, 9.6000°E)
Time: 07:44:54
(UTC+00:00)

RS-15 - Pass Details

Date: 12 December 2021
Orbit: 1882 x 2162 km, 64.8° (Epoch: 25 January)

Event Time Altitude Azimuth Distance (km) Brightness Sun altitude
Exits shadow 04:30:32 30° 304° (NW) 3,223 8.6 -24.1°
Maximum altitude 04:34:53 38° 342° (NNW) 2,924 8.7 -23.4°
Drops below altitude 10° 04:46:07 10° 48° (NE) 4,681 10.5 -21.5°
Sets 04:50:07 0° 56° (ENE) 5,694 11.1 -20.9°
